Regional Weather Roundup
Issued by NWS

Home | Current Version | Previous Version | Text Only | Print | Product List | Glossary Off
Versions: 1 2 3 4 5 6 7 8 9 10 11 12 13 14 15 16 17 18 19 20 21 22 23 24 25 26 27 28 29 30 31 32 33 34 35 36 37 38 39 40 41 42 43 44 45 46 47 48 49 50

459
ASUS43 KOAX 251402
RWRNE

WEATHER ROUNDUP FOR NEBRASKA
NATIONAL WEATHER SERVICE OMAHA NE
900 AM CDT SAT MAR 25 2017

NOTES: SATELLITE DATA IS BEING USED TO AUGMENT CLOUD COVER ABOVE
       12000 FEET.
       "FAIR" INDICATES FEW OR NO CLOUDS BELOW 12,000 FEET WITH NO
       SIGNIFICANT WEATHER AND/OR OBSTRUCTIONS TO VISIBILITY.

  * THESE STATIONS DO NOT REPORT WEATHER SUCH AS RAIN...SNOW OR FOG.

NEZ001>004-019>022-054>056-251500-
NEBRASKA PANHANDLE

CITY           SKY/WX    TMP DP  RH WIND       PRES   REMARKS
SCOTTSBLUFF    CLOUDY    34  29  82 E12       30.03R WCI  25
ALLIANCE       CLOUDY    33  30  88 SE8       30.02F WCI  26
CHADRON        CLOUDY    46  31  55 S13       29.98S
KIMBALL        CLOUDY    33  32  97 SW3       30.05R
SIDNEY         CLOUDY    31  28  89 SW6       30.05S WCI  25
$$

NEZ057>060-069>072-079>082-251500-
SOUTHWEST NEBRASKA

CITY           SKY/WX    TMP DP  RH WIND       PRES   REMARKS
NORTH PLATTE   SUNNY     33  29  85 NW6       30.07R WCI  28
IMPERIAL       CLOUDY    34  29  82 CALM      30.07R
LEXINGTON      FOG       35  33  94 N10       30.05S VSB 1   WCI  27
MCCOOK         SUNNY     37  33  85 NW7       30.05R WCI  32
OGALLALA       CLOUDY    31  29  94 W5        30.07S WCI  26
$$

NEZ005>010-023>029-035>040-094-251500-
NORTH CENTRAL NEBRASKA

CITY           SKY/WX    TMP DP  RH WIND       PRES   REMARKS
VALENTINE      FOG       27  25  92 CALM      30.07R VSB<1/4
AINSWORTH      FOG       29  29 100 SE3       30.09R VSB 1/4
BROKEN BOW     FOG       33  33 100 N13       30.05S VSB 1/2 WCI  24
O`NEILL        LGT RAIN  34  34 100 N9        30.08F VSB<1/4 WCI  27
ORD            FOG       35  33  92 N12       30.05S VSB 1/2 WCI  27
THEDFORD       CLOUDY    29  28  95 CALM      30.07F
$$

NEZ041-046>049-061>064-073>077-083>087-251500-
SOUTH CENTRAL NEBRASKA

CITY           SKY/WX    TMP DP  RH WIND       PRES   REMARKS
GRAND ISLAND   FOG       35  35 100 N15G24    30.03F VSB 3/4 WCI  25
AURORA         DRIZZLE   36  35  98 N18G26    30.01S WCI  25
HASTINGS       CLOUDY    36  35  96 N18       30.02S FOG     WCI  26
HEBRON         CLOUDY    38  36  90 N15G21    29.99R WCI  30
HOLDREGE       CLOUDY    37  35  95 N14       30.02S FOG     WCI  28
KEARNEY *      CLOUDY    36  32  87 N20       30.04R WCI  25
YORK           LGT RAIN  37  37 100 N20G30    30.01S WCI  27
$$

NEZ011>018-030>034-042>045-251500-
NORTHEAST NEBRASKA

CITY           SKY/WX    TMP DP  RH WIND       PRES   REMARKS
NORFOLK        CLOUDY    35  33  92 N15       30.05S FOG     WCI  25
ALBION         CLOUDY    36  34  92 N10       30.06S FOG     WCI  28
BLAIR          LGT RAIN  39  38  96 N18       29.98S WCI  29
FREMONT        LGT RAIN  39  39  98 N10G20    30.02S WCI  32
TEKAMAH        LGT RAIN  39  37  92 N16       30.03R FOG     WCI  30
WAYNE          CLOUDY    36  36  99 N14       30.06S FOG     WCI  27
$$

NEZ050>053-065>068-078-088>093-251500-
SOUTHEAST NEBRASKA

CITY           SKY/WX    TMP DP  RH WIND       PRES   REMARKS
LINCOLN        LGT RAIN  40  38  93 N15       30.01R FOG     WCI  32
OMAHA EPPLEY   LGT RAIN  41  36  82 N17       29.98S
BEATRICE       CLOUDY    40  39  97 N18G26    29.96R FOG     WCI  31
FALLS CITY     LGT RAIN  43  41  93 N15G21    29.90R
NEBRASKA CITY  LGT RAIN  40  40 100 N18G24    29.94R WCI  30
PLATTSMOUTH    RAIN      40  37  88 N14       29.96S WCI  32
$$

NEZ044-045-051>053-067-251500-
OMAHA AREA

CITY           SKY/WX    TMP DP  RH WIND       PRES   REMARKS
OMAHA EPPLEY   LGT RAIN  41  36  82 N17       29.98S
BLAIR          LGT RAIN  39  38  96 N18       29.98S WCI  29
FREMONT        LGT RAIN  39  39  98 N10G20    30.02S WCI  32
MILLARD        LGT RAIN  41  40  95 N6        29.99S
OFFUTT AFB     RAIN      41  38  89 N13       29.97S
PLATTSMOUTH    RAIN      40  37  88 N14       29.96S WCI  32
WAHOO          LGT RAIN  39  37  93 N17       30.01R WCI  30
$$




USA.gov is the U.S. government's official web portal to all federal, state and local government web resources and services.